Weather History for Andrews, NC

Change the Weather History Date:

Saturday, February 16, 2013

  Actual Average (KTYS) Record (KTYS)
Temperature  
Mean Temperature 30 °F 43 °F  
Max Temperature 34 °F 53 °F 78 °F (1883)
Min Temperature 25 °F 33 °F 2 °F (1905)
Degree Days  
Heating Degree Days 34 22  
Month to date heating degree days 386  
Since 1 July heating degree days 2648  
Cooling Degree Days 0 0  
Month to date cooling degree days 0  
Year to date cooling degree days 0  
Moisture  
Dew Point 21 °F    
Average Humidity 70    
Maximum Humidity 94    
Minimum Humidity 38    
Precipitation  
Precipitation 0.00 in 0.16 in 2.29 in (1889)
Month to date precipitation 2.43  
Year to date precipitation 6.75  
Snow  
Snow 0.00 in 0.10 in - ()
Month to date snowfall 1.1  
Since 1 July snowfall 4.6  
Snow Depth -    
Sea Level Pressure  
Sea Level Pressure 29.99 in    
Wind  
Wind Speed 3 mph (NW)    
Max Wind Speed 13 mph    
Max Gust Speed 23 mph    
Visibility 10 miles    
Events Snow    
T = Trace of Precipitation, MM = Missing Value Source: NWS Daily Summary

Daily Weather History Graph

Daily Weather History Graph

Search for Another Location

Airport:

Trip Planner

Search our weather history database for the weather conditions in past years. The results will help you decide how hot, cold, wet, or windy it might be!

Date:

Astronomy

Feb. 16, 2013 Rise Set
Actual Time 7:20 AM EST 6:19 PM EST
Civil Twilight 6:54 AM EST 6:45 PM EST
Nautical Twilight 6:24 AM EST 7:14 PM EST
Astronomical Twilight 5:55 AM EST 7:44 PM EST
Moon 10:48 AM EST (2/16) 12:02 AM EST (2/16)
Length of Visible Light 11h 50m
Length of Day
10h 58m
Waxing Crescent, 39% of the Moon is Illuminated
Feb 16
Waxing Crescent
Feb 17
First Quarter
Feb 25
Full
Mar 4
Last Quarter
Mar 11
New

Hourly Weather History & Observations

Time (EST) Temp. Windchill Dew Point Humidity Pressure Visibility Wind Dir Wind Speed Gust Speed Precip Events Conditions
12:15 AM 36.5 °F - 28.0 °F 71% 30.01 in 10.0 mi Calm Calm - N/A   Mostly Cloudy
12:35 AM 35.1 °F 32.2 °F 28.8 °F 78% 30.01 in 10.0 mi North 3.5 mph - N/A   Scattered Clouds
12:55 AM 33.8 °F - 28.2 °F 80% 30.01 in 10.0 mi Calm Calm - N/A   Clear
1:15 AM 33.3 °F - 27.5 °F 79% 30.00 in 10.0 mi Calm Calm - N/A   Scattered Clouds
1:35 AM 31.6 °F - 27.7 °F 85% 30.00 in 10.0 mi Calm Calm - N/A   Scattered Clouds
1:55 AM 31.6 °F - 27.5 °F 85% 30.00 in 10.0 mi Calm Calm - N/A   Scattered Clouds
2:15 AM 31.1 °F - 26.8 °F 84% 29.99 in 10.0 mi Calm Calm - N/A   Scattered Clouds
2:35 AM 30.2 °F - 27.1 °F 88% 29.98 in 10.0 mi Calm Calm - N/A   Clear
2:55 AM 29.3 °F - 26.6 °F 90% 29.98 in 10.0 mi Calm Calm - N/A   Scattered Clouds
3:15 AM 28.8 °F - 26.6 °F 92% 29.97 in 10.0 mi Calm Calm - N/A   Scattered Clouds
3:35 AM 29.7 °F - 27.3 °F 91% 29.96 in 10.0 mi Calm Calm - N/A   Scattered Clouds
3:55 AM 29.3 °F - 27.5 °F 93% 29.96 in 10.0 mi Calm Calm - N/A   Mostly Cloudy
4:15 AM 29.5 °F - 27.3 °F 92% 29.95 in 10.0 mi Calm Calm - N/A   Mostly Cloudy
4:35 AM 29.5 °F - 27.3 °F 92% 29.95 in 10.0 mi Calm Calm - N/A   Scattered Clouds
4:55 AM 28.9 °F 23.9 °F 26.6 °F 91% 29.95 in 10.0 mi NNE 4.6 mph - N/A   Scattered Clouds
5:15 AM 29.1 °F 25.4 °F 27.1 °F 92% 29.95 in 10.0 mi SSE 3.5 mph - N/A   Scattered Clouds
5:35 AM 30.2 °F - 27.1 °F 88% 29.95 in 10.0 mi Calm Calm - N/A   Scattered Clouds
6:15 AM 30.9 °F - 27.3 °F 86% 29.94 in 10.0 mi Calm Calm - N/A   Mostly Cloudy
6:35 AM 30.0 °F - 27.5 °F 90% 29.94 in 10.0 mi Calm Calm - N/A   Mostly Cloudy
6:55 AM 30.0 °F 26.5 °F 27.5 °F 90% 29.94 in 10.0 mi SE 3.5 mph - N/A   Scattered Clouds
7:15 AM 29.7 °F - 27.5 °F 92% 29.94 in 10.0 mi Calm Calm - N/A   Scattered Clouds
7:35 AM 29.3 °F 25.6 °F 27.7 °F 94% 29.95 in 10.0 mi WSW 3.5 mph - N/A   Scattered Clouds
7:55 AM 30.0 °F - 28.4 °F 94% 29.95 in 10.0 mi Calm Calm - N/A   Mostly Cloudy
8:15 AM 30.6 °F - 28.2 °F 91% 29.95 in 10.0 mi Calm Calm - N/A   Overcast
8:35 AM 30.9 °F - 28.6 °F 91% 29.96 in 10.0 mi Calm Calm - N/A   Mostly Cloudy
8:55 AM 32.2 °F 25.0 °F 26.1 °F 78% 29.95 in 10.0 mi NE 8.1 mph - N/A   Scattered Clouds
9:15 AM 32.4 °F 26.9 °F 24.8 °F 74% 29.96 in 10.0 mi NNE 5.8 mph - N/A   Clear
9:35 AM 32.5 °F 25.5 °F 23.9 °F 70% 29.96 in 10.0 mi NNE 8.1 mph - N/A   Scattered Clouds
9:55 AM 32.0 °F 24.8 °F 23.5 °F 71% 29.96 in 10.0 mi NE 8.1 mph - N/A   Mostly Cloudy
10:15 AM 34.0 °F 25.5 °F 22.5 °F 63% 29.95 in 10.0 mi North 11.5 mph - N/A   Mostly Cloudy
10:35 AM 32.4 °F 24.6 °F 21.4 °F 64% 29.95 in 10.0 mi North 9.2 mph 18.4 mph N/A   Scattered Clouds
1:15 PM 33.3 °F 26.4 °F 14.5 °F 46% 29.95 in 10.0 mi WNW 8.1 mph 17.3 mph N/A   Mostly Cloudy
1:35 PM 32.0 °F 23.0 °F 22.1 °F 67% 29.94 in 7.0 mi NNE 11.5 mph 17.3 mph N/A Snow Light Snow
1:55 PM 32.0 °F 24.2 °F 15.8 °F 51% 29.94 in 10.0 mi NNE 9.2 mph - N/A   Mostly Cloudy
2:15 PM 34.3 °F 27.7 °F 14.5 °F 44% 29.94 in 10.0 mi North 8.1 mph 19.6 mph N/A   Overcast
2:35 PM 33.1 °F 26.1 °F 14.9 °F 47% 29.95 in 10.0 mi NW 8.1 mph 16.1 mph N/A   Mostly Cloudy
2:55 PM 32.5 °F 29.3 °F 14.7 °F 48% 29.94 in 10.0 mi West 3.5 mph 19.6 mph N/A   Overcast
3:15 PM 34.0 °F 28.8 °F 10.8 °F 38% 29.94 in 10.0 mi West 5.8 mph - N/A   Overcast
3:35 PM 32.0 °F 22.5 °F 10.0 °F 40% 29.95 in 10.0 mi NNW 12.7 mph 23.0 mph N/A   Overcast
3:55 PM 33.8 °F 24.8 °F 16.9 °F 50% 29.95 in 10.0 mi West 12.7 mph 18.4 mph N/A   Mostly Cloudy
4:15 PM 30.9 °F 26.2 °F 20.5 °F 65% 29.97 in 2.0 mi West 4.6 mph 16.1 mph N/A Snow Light Snow
4:35 PM 30.6 °F 21.2 °F 15.6 °F 54% 29.98 in 10.0 mi WNW 11.5 mph 23.0 mph N/A   Mostly Cloudy
4:55 PM 28.8 °F 20.9 °F 18.7 °F 66% 29.98 in 7.0 mi West 8.1 mph 18.4 mph N/A Snow Light Snow
5:15 PM 28.8 °F 20.9 °F 20.5 °F 71% 29.99 in 10.0 mi West 8.1 mph - N/A   Mostly Cloudy
5:35 PM 27.3 °F 18.4 °F 20.3 °F 75% 29.99 in 5.0 mi WSW 9.2 mph - N/A Snow Light Snow
5:55 PM 27.9 °F 19.1 °F 19.4 °F 71% 29.99 in 10.0 mi West 9.2 mph - N/A   Mostly Cloudy
6:15 PM 26.8 °F 20.2 °F 19.4 °F 74% 30.00 in 1.2 mi West 5.8 mph 17.3 mph N/A Snow Light Snow
6:35 PM 26.2 °F 19.6 °F 21.0 °F 81% 30.00 in 7.0 mi WSW 5.8 mph - N/A Snow Light Snow
6:55 PM 25.5 °F 21.3 °F 21.2 °F 84% 30.01 in 10.0 mi SW 3.5 mph - N/A   Mostly Cloudy
7:15 PM 27.0 °F 20.5 °F 17.8 °F 68% 30.02 in 7.0 mi NW 5.8 mph - N/A Snow Light Snow
7:35 PM 26.4 °F 22.4 °F 19.2 °F 74% 30.02 in 10.0 mi NE 3.5 mph - N/A   Mostly Cloudy
7:55 PM 27.5 °F 20.2 °F 14.4 °F 58% 30.03 in 10.0 mi West 6.9 mph - N/A Snow Light Snow
8:15 PM 25.5 °F 19.9 °F 19.0 °F 76% 30.04 in 10.0 mi WSW 4.6 mph - N/A   Scattered Clouds
8:35 PM 27.5 °F 20.2 °F 10.8 °F 49% 30.04 in 10.0 mi WNW 6.9 mph - N/A   Scattered Clouds
8:55 PM 27.3 °F 20.9 °F 11.7 °F 52% 30.05 in 10.0 mi West 5.8 mph - N/A   Mostly Cloudy
9:15 PM 27.1 °F 18.2 °F 10.6 °F 50% 30.05 in 10.0 mi West 9.2 mph 19.6 mph N/A   Mostly Cloudy
9:35 PM 26.8 °F 22.8 °F 10.0 °F 49% 30.06 in 10.0 mi WNW 3.5 mph - N/A   Mostly Cloudy
9:55 PM 26.6 °F 19.1 °F 10.2 °F 50% 30.06 in 10.0 mi NW 6.9 mph - N/A   Mostly Cloudy
10:15 PM 26.4 °F 18.9 °F 9.0 °F 48% 30.07 in 10.0 mi WNW 6.9 mph 16.1 mph N/A   Scattered Clouds
10:35 PM 26.1 °F 16.8 °F 8.2 °F 47% 30.07 in 10.0 mi NW 9.2 mph 18.4 mph N/A   Clear
10:55 PM 25.7 °F 19.0 °F 8.8 °F 49% 30.07 in 10.0 mi West 5.8 mph - N/A   Clear
11:15 PM 25.7 °F 16.4 °F 8.6 °F 48% 30.07 in 10.0 mi NW 9.2 mph 16.1 mph N/A   Clear
11:35 PM 25.3 °F 17.6 °F 8.6 °F 49% 30.07 in 10.0 mi WNW 6.9 mph - N/A   Clear
11:55 PM 25.2 °F 16.5 °F 7.5 °F 47% 30.08 in 10.0 mi NW 8.1 mph - N/A   Scattered Clouds